Regional Weather Roundup
Issued by NWS Boston, MA

Home | Current Version | Previous Version | Text Only | Print | Product List | Glossary On
Versions: 1 2 3 4 5 6 7 8 9 10 11 12 13 14 15 16 17 18 19 20 21 22 23 24 25 26 27 28 29 30 31 32 33 34 35 36 37 38 39 40 41 42
000
ASUS41 KBOX 271210
RWRBOX

REGIONAL WEATHER ROUNDUP
NATIONAL WEATHER SERVICE TAUNTON MA
700 AM EST SAT DEC 27 2014

NOTE:  "FAIR" INDICATES FEW OR NO CLOUDS BELOW 12,000 FEET WITH NO
SIGNIFICANT WEATHER AND/OR OBSTRUCTIONS TO VISIBILITY.  THE FOLLOWING
OBSERVATION LOCATIONS DO NOT REPORT PRESENT WEATHER...PROVINCETOWN...
SMITHFIELD...BLOCK ISLAND...KEENE...AND OXFORD.

MAZALL-271300-
EASTERN MASSACHUSETTS

CITY           SKY/WX    TMP DP  RH WIND       PRES   REMARKS
BOSTON         PTCLDY    40  29  64 W8        30.18R
6HR MIN TEMP:  39; 6HR MAX TEMP:  42;

BEVERLY        MOCLDY    36  27  69 W3        30.16R
LAWRENCE       MOCLDY    34  28  79 CALM      30.18R
BEDFORD        PTCLDY    35  28  75 SW8       30.17R WCI  29
BLUE HILL        N/A     35  27  72 W14       30.15R WCI  26
NORWOOD        PTCLDY    29  27  92 SW3       30.18R
MARSHFIELD     PTCLDY    34  30  86 W5        30.19R WCI  30
PLYMOUTH       PTCLDY    34  28  79 W5        30.18R WCI  30
TAUNTON        PTCLDY    26  24  92 CALM      30.18R
NEW BEDFORD    PTCLDY    31  28  89 CALM      30.18R
$$

MAZALL-271300-
CAPE COD AND THE ISLANDS

CITY           SKY/WX    TMP DP  RH WIND       PRES   REMARKS
FALMOUTH       FAIR      30  28  93 W3        30.19R
HYANNIS        CLEAR     33  28  81 W3        30.17R
CHATHAM        CLEAR     30  28  92 W3        30.18R
PROVINCETOWN   PTCLDY    41  32  70 W8        30.17S
NANTUCKET      CLEAR     39  32  76 W5        30.19R
MARTHAS VNYRD  CLEAR     37  30  75 W6        30.19R
$$

MAZALL-271300-
CENTRAL AND WESTERN MASSACHUSETTS

CITY           SKY/WX    TMP DP  RH WIND       PRES   REMARKS
WORCESTER      MOCLDY    33  27  78 W8        30.16R WCI  26
6HR MIN TEMP:  30; 6HR MAX TEMP:  33;

FITCHBURG      MOCLDY    31  27  85 CALM      30.18R
ORANGE         CLOUDY    26  24  92 CALM      30.18R
SPRINGFIELD    CLOUDY    25  24  95 N1        30.19R
WESTFIELD      PTCLDY    27  24  89 S6        30.19R WCI  20
NORTH ADAMS    PTCLDY    35  28  75 NW5       30.17R WCI  31
PITTSFIELD     PTCLDY    33  27  78 SW3       30.15R
$$

RIZALL-271300-
RHODE ISLAND

CITY           SKY/WX    TMP DP  RH WIND       PRES   REMARKS
PROVIDENCE     PTCLDY    34  27  75 W6        30.20R WCI  29
6HR MIN TEMP:  29; 6HR MAX TEMP:  39;

NEWPORT        CLEAR     30  28  92 CALM      30.19R
BLOCK ISLAND   CLEAR     39  30  70 W6        30.21R
SMITHFIELD     PTCLDY    34  21  60 W6        30.17S WCI  29
WESTERLY       CLEAR     29  27  92 CALM      30.23R
$$

CTZALL-271300-
CONNECTICUT

CITY           SKY/WX    TMP DP  RH WIND       PRES   REMARKS
BRADLEY INTL   PTCLDY    30  27  88 S5        30.20R WCI  25
6HR MIN TEMP:  26; 6HR MAX TEMP:  30;

HARTFORD       CLEAR     29  27  92 CALM      30.23R FOG
BRIDGEPORT     MOCLDY    36  31  82 CALM      30.24R
DANBURY        MOCLDY    29  25  85 CALM      30.23R
GROTON         CLEAR     27  26  96 CALM      30.23R FOG
NEW HAVEN      MOCLDY    32  27  81 CALM      30.23R
CHESTER        FAIR      34  30  86 W3        30.22R
MERIDEN        PTCLDY    28  25  88 CALM      30.23R
WILLIMANTIC    CLEAR     26  22  84 CALM      30.23R
OXFORD         CLEAR     34  21  60 N5        30.21R WCI  30
$$

MEZ002-015-021-024-NHZ003-005-008-011-012-014-VTZ005-008-271300-
NORTHERN NEW ENGLAND

CITY           SKY/WX    TMP DP  RH WIND       PRES   REMARKS
PORTLAND ME    PTCLDY    31  26  82 W6        30.13R WCI  25
6HR MIN TEMP:  28; 6HR MAX TEMP:  39;

BANGOR ME      CLOUDY    37  28  70 SW5       30.07R
CONCORD NH     MOCLDY    27  25  92 CALM      30.16R
MANCHESTER NH  MOCLDY    33  28  81 CALM      30.15R
NASHUA NH      MOCLDY    35  30  82 CALM      30.17R
PORTSMOUTH NH  MOCLDY    36  28  73 W9        30.14R WCI  29
JAFFREY NH     CLOUDY    32  27  81 S6        30.15R WCI  26
KEENE NH       CLOUDY    27  25  93 CALM      30.17R
BURLINGTON VT  CLOUDY    39  28  64 CALM      30.16R
MT. WASHINGTON FOG       16  16 100 NW52G62     N/A  VSB 0   WCI  -9
$$

NYZ052-076-271300-
EASTERN NEW YORK

CITY           SKY/WX    TMP DP  RH WIND       PRES   REMARKS
ALBANY         MOCLDY    32  27  81 CALM      30.21R
6HR MIN TEMP:  25; 6HR MAX TEMP:  32;

NEW YORK CITY  MOCLDY    45  31  58 NW7       30.23R
6HR MIN TEMP:  42; 6HR MAX TEMP:  46;

$$

ANZALL-271300-
MARINE OBSERVATIONS

STATION/POSITION TIME  TEMP    WIND        PRES    VSBY  WAVE
                       AIR SEA DIR/SP/G                  HT/PER
                 (UTC) (F)     (DEG/KT/KT) (MB)    (MI)  (FT/S)
BOSTON BUOY      1150   42 44  270/ 12/ 14 1021.5R         3/14
BUZZARDS BAY     1100          280/  6/  7 1022.7R
NANTUCKET SOUND  1150   43 44  280/ 10/ 14 1021.9R         1/ 3
MASS BAY-STELLWA NOT AVBL
ISLE OF SHOALS   1200   40     260/ 13/ 14 1020.3R
S OF BLOCK IS    1108      51                N/A           4/15
$$

......................KEY.........................
  SKY/WX - SKY CONDITION/PRESENT WEATHER
  TMP    - TEMPERATURE IN FAHRENHEIT
  DWPT   - DEWPOINT IN FAHRENHEIT
  RH     - RELATIVE HUMIDITY IN PERCENT
  WIND   - DIRECTION AND SPEED IN MPH
  PRES   - MEAN SEA LEVEL PRESSURE IN INCHES OF HG
  WCI    - WIND CHILL INDEX
  VSB    - VISIBILITY IN MILES
  HX     - HEAT INDEX
  TC     - TEMPERATURE IN CELSIUS
  VRB    - VARIABLE WIND DIRECTION
  N/A    - NOT AVAILABLE


USA.gov is the U.S. government's official web portal to all federal, state and local government web resources and services.